Osceola, WI

7:40 AM CST on November 18, 2019 (GMT -0600)
Simenstad Municipal

Weather History for KOEO - October, 2019

Change the Weather History Date:

Monday, October 21, 2019

  Actual Average (KANE) Record (KANE)
Temperature  
Mean Temperature 50 °F -  
Max Temperature 56 °F 53 °F 71 °F (2012)
Min Temperature 45 °F 36 °F 26 °F (2008)
Degree Days  
Heating Degree Days 14    
Moisture  
Dew Point 45 °F    
Average Humidity 85    
Maximum Humidity 100    
Minimum Humidity 54    
Precipitation  
Precipitation 1.44 in - - ()
Sea Level Pressure  
Sea Level Pressure 29.37 in    
Wind  
Wind Speed 10 mph (East)    
Max Wind Speed 16 mph    
Max Gust Speed 30 mph    
Visibility 9 miles    
Events Rain    
Averages and records for this station are not official NWS values.
T = Trace of Precipitation, MM = Missing Value Source: NWS Daily Summary

Daily Weather History Graph

Daily Weather History Graph

Search for Another Location

Airport or City:

Astronomy

Oct. 21, 2019 Rise Set
Actual Time 7:34 AM CDT 6:15 PM CDT
Civil Twilight 7:04 AM CDT 6:45 PM CDT
Nautical Twilight 6:30 AM CDT 7:19 PM CDT
Astronomical Twilight 5:55 AM CDT 7:53 PM CDT
Moon No Moon Rise 3:02 PM CDT (10/21)
Length of Visible Light 11h 41m
Length of Day
10h 41m
Waning Gibbous, 48% of the Moon is Illuminated
Oct 21
Waning Gibbous
Oct 27
New
Nov 4
First Quarter
Nov 12
Full
Nov 19
Last Quarter

Hourly Weather History & Observations

Time (CDT) Temp. Windchill Dew Point Humidity Pressure Visibility Wind Dir Wind Speed Gust Speed Precip Events Conditions
12:15 AM 54.1 °F - 41.4 °F 62% 29.82 in 10.0 mi ESE 10.4 mph - N/A   Clear
12:35 AM 54.1 °F - 41.9 °F 63% 29.81 in 10.0 mi East 10.4 mph - N/A   Clear
1:15 AM 54.1 °F - 41.9 °F 63% 29.79 in 10.0 mi East 9.2 mph - N/A   Clear
1:35 AM 54.0 °F - 41.5 °F 63% 29.76 in 10.0 mi East 11.5 mph 16.1 mph N/A   Clear
1:55 AM 53.6 °F - 41.0 °F 62% 29.74 in 10.0 mi East 10.4 mph - N/A   Clear
2:15 AM 53.2 °F - 40.8 °F 63% 29.74 in 10.0 mi East 9.2 mph - N/A   Clear
2:35 AM 53.1 °F - 40.8 °F 63% 29.74 in 10.0 mi East 9.2 mph - N/A   Clear
2:55 AM 52.9 °F - 40.5 °F 63% 29.74 in 10.0 mi East 10.4 mph - N/A   Scattered Clouds
3:15 AM 52.7 °F - 40.5 °F 63% 29.74 in 10.0 mi East 8.1 mph - N/A   Overcast
3:35 AM 52.9 °F - 39.7 °F 61% 29.72 in 10.0 mi East 9.2 mph - N/A   Mostly Cloudy
3:55 AM 52.7 °F - 38.7 °F 59% 29.70 in 10.0 mi East 9.2 mph - N/A   Scattered Clouds
4:15 AM 53.2 °F - 37.6 °F 55% 29.69 in 10.0 mi East 9.2 mph - N/A   Clear
4:35 AM 53.4 °F - 37.2 °F 54% 29.66 in 10.0 mi East 12.7 mph 17.3 mph N/A   Scattered Clouds
4:55 AM 53.6 °F - 38.5 °F 57% 29.65 in 10.0 mi East 12.7 mph - N/A   Overcast
5:15 AM 53.2 °F - 39.7 °F 60% 29.64 in 10.0 mi East 12.7 mph 18.4 mph N/A   Mostly Cloudy
5:35 AM 53.2 °F - 38.5 °F 57% 29.62 in 10.0 mi East 11.5 mph 21.9 mph N/A   Mostly Cloudy
5:55 AM 53.1 °F - 37.6 °F 56% 29.61 in 10.0 mi East 16.1 mph 24.2 mph N/A Rain Light Rain
6:15 AM 52.2 °F - 37.8 °F 58% 29.59 in 10.0 mi East 11.5 mph 23.0 mph N/A Rain Light Rain
6:35 AM 52.7 °F - 36.3 °F 54% 29.56 in 10.0 mi ENE 13.8 mph 19.6 mph N/A   Overcast
6:55 AM 52.2 °F - 36.3 °F 55% 29.55 in 10.0 mi ENE 11.5 mph 19.6 mph N/A   Overcast
7:15 AM 51.1 °F - 38.3 °F 62% 29.54 in 10.0 mi East 13.8 mph 20.7 mph N/A Rain Light Rain
7:35 AM 48.0 °F - 41.5 °F 78% 29.52 in 7.0 mi ENE 11.5 mph - 0.04 in Rain Heavy Rain
7:55 AM 46.4 °F 41.5 °F 43.0 °F 88% 29.50 in 5.0 mi ENE 10.4 mph 18.4 mph 0.13 in Rain Rain
8:15 AM 45.7 °F 39.8 °F 43.9 °F 93% 29.49 in 7.0 mi ENE 12.7 mph 16.1 mph 0.07 in Rain Heavy Rain
8:35 AM 45.5 °F 39.2 °F 45.0 °F 98% 29.47 in 4.0 mi ENE 13.8 mph 19.6 mph 0.16 in Rain Rain
8:55 AM 45.5 °F 39.2 °F 45.5 °F 100% 29.45 in 7.0 mi NE 13.8 mph 19.6 mph 0.21 in Rain Rain
9:15 AM 46.2 °F 39.5 °F 46.2 °F 100% 29.43 in 7.0 mi ENE 16.1 mph 23.0 mph 0.02 in Rain Rain
9:35 AM 46.6 °F - 46.6 °F 100% 29.42 in 7.0 mi ENE 13.8 mph 26.5 mph 0.07 in Rain Rain
9:55 AM 46.9 °F - 46.9 °F 100% 29.38 in 7.0 mi ENE 12.7 mph 23.0 mph 0.11 in Rain Rain
10:15 AM 47.5 °F - 47.5 °F 100% 29.36 in 4.0 mi ENE 16.1 mph 24.2 mph 0.08 in Rain Heavy Rain
10:35 AM 48.0 °F - 48.0 °F 100% 29.35 in 5.0 mi East 16.1 mph 29.9 mph 0.15 in Rain Rain
10:55 AM 48.2 °F - 48.2 °F 100% 29.33 in 4.0 mi ENE 15.0 mph 24.2 mph 0.23 in Rain Rain
11:15 AM 48.4 °F - 48.4 °F 100% 29.30 in 4.0 mi ENE 12.7 mph 23.0 mph 0.07 in Rain Rain
11:35 AM 48.7 °F - 48.7 °F 100% 29.27 in 5.0 mi NE 11.5 mph 21.9 mph 0.15 in Rain Rain
11:55 AM 49.3 °F - 49.3 °F 100% 29.26 in 5.0 mi East 11.5 mph 21.9 mph 0.23 in Rain Heavy Rain
12:15 PM 49.5 °F - 49.5 °F 100% 29.25 in 3.0 mi ENE 13.8 mph 21.9 mph 0.10 in Rain Heavy Rain
12:35 PM 49.6 °F - 49.6 °F 100% 29.23 in 4.0 mi ENE 11.5 mph - 0.24 in Rain Heavy Rain
12:55 PM 49.6 °F - 49.6 °F 100% 29.22 in 5.0 mi ENE 10.4 mph - 0.36 in Rain Rain
1:15 PM 50.0 °F - 50.0 °F 100% 29.21 in 5.0 mi NE 4.6 mph - 0.04 in Rain Rain
1:35 PM 50.0 °F - 50.0 °F 100% 29.19 in 5.0 mi NE 3.5 mph - 0.11 in Rain Rain
1:55 PM 50.0 °F - 50.0 °F 100% 29.12 in 10.0 mi NNE 12.7 mph - 0.14 in Rain Light Rain
2:15 PM 50.9 °F - 50.9 °F 100% 29.11 in 10.0 mi NNE 11.5 mph - N/A   Mostly Cloudy
2:35 PM 52.2 °F - 52.2 °F 100% 29.11 in 10.0 mi ENE 9.2 mph - N/A   Mostly Cloudy
2:55 PM 53.6 °F - 53.6 °F 100% 29.14 in 10.0 mi South 10.4 mph - N/A   Overcast
3:15 PM 55.6 °F - 54.0 °F 94% 29.15 in 10.0 mi South 13.8 mph 19.6 mph N/A   Overcast
3:35 PM 55.0 °F - 52.5 °F 91% 29.15 in 10.0 mi South 11.5 mph - N/A   Mostly Cloudy
3:55 PM 56.3 °F - 50.4 °F 80% 29.14 in 10.0 mi SSE 12.7 mph 16.1 mph N/A   Scattered Clouds
4:15 PM 54.9 °F - 50.0 °F 84% 29.14 in 10.0 mi SSE 9.2 mph 16.1 mph N/A   Scattered Clouds
4:35 PM 55.4 °F - 50.2 °F 83% 29.15 in 10.0 mi SSE 12.7 mph - N/A   Mostly Cloudy
4:55 PM 54.9 °F - 50.2 °F 84% 29.15 in 10.0 mi SE 9.2 mph - N/A   Mostly Cloudy
5:15 PM 53.8 °F - 50.0 °F 87% 29.15 in 10.0 mi SSE 8.1 mph - 0.01 in Rain Light Rain
5:35 PM 53.1 °F - 50.2 °F 90% 29.15 in 7.0 mi SSW 5.8 mph - 0.01 in   Overcast
5:55 PM 51.3 °F - 49.3 °F 93% 29.16 in 10.0 mi SSE 11.5 mph - 0.03 in   Overcast
6:15 PM 51.1 °F - 48.6 °F 91% 29.16 in 10.0 mi South 5.8 mph - N/A   Overcast
6:35 PM 49.8 °F - 47.5 °F 92% 29.17 in 10.0 mi SSE 3.5 mph - N/A   Mostly Cloudy
6:55 PM 49.3 °F - 48.7 °F 98% 29.18 in 10.0 mi SE 5.8 mph - N/A   Overcast
7:15 PM 49.3 °F - 48.2 °F 96% 29.18 in 10.0 mi SSE 10.4 mph - N/A   Overcast
7:35 PM 49.1 °F - 47.3 °F 93% 29.19 in 10.0 mi SSE 9.2 mph - N/A   Overcast
7:55 PM 48.6 °F - 47.3 °F 95% 29.19 in 10.0 mi SSE 8.1 mph - N/A   Overcast
8:15 PM 48.4 °F - 46.8 °F 94% 29.19 in 10.0 mi SE 5.8 mph - N/A   Overcast
8:35 PM 48.4 °F - 45.9 °F 91% 29.19 in 10.0 mi SE 9.2 mph - N/A   Overcast
8:55 PM 48.2 °F - 45.7 °F 91% 29.19 in 10.0 mi SE 9.2 mph - N/A   Overcast
9:15 PM 47.8 °F - 45.9 °F 93% 29.19 in 10.0 mi SSE 8.1 mph - N/A   Overcast
9:35 PM 47.3 °F - 46.4 °F 97% 29.19 in 10.0 mi SE 8.1 mph - N/A   Overcast
9:55 PM 46.8 °F - 46.6 °F 99% 29.19 in 10.0 mi SE 6.9 mph - N/A   Drizzle
10:15 PM 46.8 °F - 46.8 °F 100% 29.19 in 10.0 mi SSE 4.6 mph - N/A   Overcast
10:35 PM 46.4 °F - 46.4 °F 100% 29.20 in 10.0 mi Calm Calm - N/A   Overcast
10:55 PM 46.2 °F - 46.2 °F 100% 29.21 in 10.0 mi Calm Calm - N/A   Overcast
11:15 PM 45.7 °F - 45.7 °F 100% 29.21 in 10.0 mi Calm Calm - N/A   Overcast
11:35 PM 45.9 °F - 45.9 °F 100% 29.21 in 10.0 mi Calm Calm - N/A   Overcast
11:55 PM 45.5 °F - 45.5 °F 100% 29.21 in 10.0 mi Calm Calm - N/A   Overcast